Location: Brantley
(31.5822°N, 86.2569°W)
Time: 19:16:10
(UTC+00:00)

Vanguard 3 - Pass Details

Date: 20 February 2026
Orbit: 507 x 3205 km, 33.4° (Epoch: 9 March)

Event Time Altitude Azimuth Distance (km) Brightness Sun altitude
Rises 19:03:28 0° 226° (SW) 6,975 12.6 45.0°
Reaches altitude 10° 19:08:46 10° 221° (SW) 5,726 12.4 44.5°
Maximum altitude 19:24:02 48° 154° (SSE) 2,590 10.7 43.0°
Drops below altitude 10° 19:33:19 10° 84° (E) 3,590 10.3 42.0°
Sets 19:35:51 0° 78° (ENE) 4,270 10.5 41.7°
